Regional Weather Roundup
Issued by NWS

Home | Current Version | Previous Version | Text Only | Print | Product List | Glossary On
Versions: 1 2 3 4 5 6 7 8 9 10 11 12 13 14 15 16 17 18 19 20 21 22 23 24 25 26 27 28 29 30 31 32 33 34 35 36 37 38 39 40 41 42 43 44 45 46 47 48 49 50
000
ASUS43 KBIS 041510
RWRND

NORTH DAKOTA REGIONAL WEATHER ROUNDUP
NATIONAL WEATHER SERVICE BISMARCK ND
1000 AM CDT TUE AUG 04 2015

NOTE: "FAIR" INDICATES FEW OR NO CLOUDS BELOW 12,000 FEET WITH NO
SIGNIFICANT WEATHER AND/OR OBSTRUCTIONS TO VISIBILITY.


NDZ001>003-009>011-017-041600-
NORTHWEST NORTH DAKOTA

CITY           SKY/WX    TMP DP  RH WIND       PRES   REMARKS
WILLISTON      SUNNY     75  48  38 SE10      29.97S
MINOT          SUNNY     70  49  47 E6        30.01S
MINOT AFB      SUNNY     71  53  53 SE6       30.01R
$$

NDZ018>021-031>035-040>046-041600-
SOUTHWEST NORTH DAKOTA

CITY           SKY/WX    TMP DP  RH WIND       PRES   REMARKS
BISMARCK       SUNNY     69  55  60 E7        30.00S
DICKINSON      SUNNY     70  55  59 SE10      29.98S
GARRISON         N/A     68  58  70 SE9       30.00S
HETTINGER ARPT MOSUNNY   69  56  62 SE9       30.00R
$$

NDZ004>008-012>016-024-026-027-054-041600-
NORTHEAST NORTH DAKOTA

CITY           SKY/WX    TMP DP  RH WIND       PRES   REMARKS
GRAND FORKS    MOSUNNY   66  54  65 N6        30.03S
GRND FRKS AFB  SUNNY     65  54  68 N6        30.04R
DEVILS LAKE    SUNNY     66  52  59 SE7       30.03S
$$

NDZ022-023-025-028>030-036>039-047>053-041600-
SOUTHEAST NORTH DAKOTA

CITY           SKY/WX    TMP DP  RH WIND       PRES   REMARKS
FARGO          SUNNY     68  54  60 CALM      30.02F
JAMESTOWN      SUNNY     69  56  62 E6        30.02S
$$




USA.gov is the U.S. government's official web portal to all federal, state and local government web resources and services.